,,PA_Meas_PMT16A,,PR_Meas_QMR101_102,,RH_Meas_QMH101,,SR_Meas_QMS101,,TA_Meas_QMH101,,GenWind,,GenWind,
time,status,PA,status,PR,status,RH,status,SR,status,TA,status,DirAvg,status,SpdAvg,
2017-02-21, 15:21:04,VALID,919.023,VALID,0,INVALID,129.164,VALID,107.119,VALID,19.8993,VALID,153,VALID,2.06367,
2017-02-21, 15:22:04,VALID,919.012,VALID,0,INVALID,129.369,VALID,109.16,VALID,19.8993,VALID,156,VALID,1.59336,
2017-02-21, 15:23:04,VALID,919.038,VALID,0,INVALID,129.438,VALID,111.094,VALID,19.9563,VALID,154,VALID,1.22461,
2017-02-21, 15:24:04,VALID,919.027,VALID,0,INVALID,129.751,VALID,112.813,VALID,19.9563,VALID,159,VALID,2.05156,
2017-02-21, 15:25:04,VALID,919.047,VALID,0,INVALID,129.949,VALID,114.532,VALID,19.9758,VALID,147,VALID,1.63281,
2017-02-21, 15:26:04,VALID,919.05,VALID,0,INVALID,130.353,VALID,116.681,VALID,19.9743,VALID,157,VALID,1.79648,
2017-02-21, 15:27:04,VALID,919.031,VALID,0,INVALID,130.589,VALID,119.475,VALID,20.0538,VALID,152,VALID,1.38711,
2017-02-21, 15:28:04,VALID,919.026,VALID,0,INVALID,130.864,VALID,122.483,VALID,20.0928,VALID,145,VALID,1.85078,
2017-02-21, 15:29:04,VALID,919.032,VALID,0,INVALID,131.268,VALID,126.136,VALID,20.1108,VALID,134,VALID,1.90625,
2017-02-21, 15:30:04,VALID,919.028,VALID,0,INVALID,131.611,VALID,129.896,VALID,20.1303,VALID,129,VALID,1.80313,
2017-02-21, 15:31:04,VALID,919.012,VALID,0,INVALID,131.847,VALID,133.764,VALID,20.2473,VALID,134,VALID,1.87695,
2017-02-21, 15:32:04,VALID,918.985,VALID,0,INVALID,132.243,VALID,137.525,VALID,20.2879,VALID,122,VALID,1.58438,
2017-02-21, 15:33:04,VALID,918.988,VALID,0,INVALID,132.571,VALID,141.285,VALID,20.3464,VALID,143,VALID,1.65469,
2017-02-21, 15:34:04,VALID,918.982,VALID,0,INVALID,132.952,VALID,144.831,VALID,20.3448,VALID,136,VALID,1.31875,
2017-02-21, 15:35:04,VALID,918.966,VALID,0,INVALID,133.204,VALID,148.484,VALID,20.3854,VALID,155,VALID,1.61055,
2017-02-21, 15:36:04,VALID,918.965,VALID,0,INVALID,133.501,VALID,152.244,VALID,20.3659,VALID,156,VALID,1.59844,
2017-02-21, 15:37:04,VALID,918.948,VALID,0,INVALID,133.623,VALID,156.757,VALID,20.3674,VALID,145,VALID,1.39766,
2017-02-21, 15:38:04,VALID,918.97,VALID,0,INVALID,133.738,VALID,161.377,VALID,20.3269,VALID,164,VALID,1.8043,
2017-02-21, 15:39:04,VALID,918.981,VALID,0,INVALID,133.745,VALID,166.104,VALID,20.3269,VALID,160,VALID,1.64063,
2017-02-21, 15:40:04,VALID,918.967,VALID,0,INVALID,133.722,VALID,170.724,VALID,20.3854,VALID,172,VALID,1,
2017-02-21, 15:41:04,VALID,919.001,VALID,0,INVALID,133.73,VALID,175.237,VALID,20.4259,VALID,149,VALID,1.68672,
2017-02-21, 15:42:04,VALID,919.001,VALID,0,INVALID,133.73,VALID,179.104,VALID,20.3854,VALID,158,VALID,2.13203,
2017-02-21, 15:43:04,VALID,919.012,VALID,0,INVALID,133.677,VALID,182.865,VALID,20.4423,VALID,156,VALID,1.24727,
2017-02-21, 15:44:04,VALID,918.999,VALID,0,INVALID,133.738,VALID,186.41,VALID,20.4829,VALID,160,VALID,2.125,
2017-02-21, 15:45:04,VALID,919.05,VALID,0,INVALID,133.707,VALID,190.601,VALID,20.4829,VALID,152,VALID,1.69922,
2017-02-21, 15:46:04,VALID,919.041,VALID,0,INVALID,133.692,VALID,195.65,VALID,20.5414,VALID,159,VALID,1.66289,
2017-02-21, 15:47:04,VALID,919.039,VALID,0,INVALID,133.684,VALID,200.7,VALID,20.5804,VALID,145,VALID,1.48477,
2017-02-21, 15:48:04,VALID,919.035,VALID,0,INVALID,133.661,VALID,206.394,VALID,20.5999,VALID,149,VALID,2.47539,
2017-02-21, 15:49:04,VALID,919.087,VALID,0,INVALID,133.593,VALID,210.37,VALID,20.5984,VALID,145,VALID,2.01719,
2017-02-21, 15:50:04,VALID,919.035,VALID,0,INVALID,133.547,VALID,213.056,VALID,20.6764,VALID,139,VALID,1.61016,
2017-02-21, 15:51:04,VALID,919.087,VALID,0,INVALID,133.562,VALID,215.205,VALID,20.7544,VALID,152,VALID,1.68359,
2017-02-21, 15:52:04,VALID,919.021,VALID,0,INVALID,133.608,VALID,217.246,VALID,20.8535,VALID,157,VALID,1.58398,
2017-02-21, 15:53:04,VALID,919.037,VALID,0,INVALID,133.524,VALID,220.469,VALID,20.873,VALID,150,VALID,1.3332,
2017-02-21, 15:54:04,VALID,919.063,VALID,0,INVALID,133.547,VALID,224.337,VALID,20.9105,VALID,156,VALID,1.71016,
2017-02-21, 15:55:04,VALID,919.022,VALID,0,INVALID,133.311,VALID,228.312,VALID,20.9105,VALID,159,VALID,1.70469,
2017-02-21, 15:56:04,VALID,919.041,VALID,0,INVALID,132.762,VALID,234.007,VALID,20.891,VALID,157,VALID,1.64727,
2017-02-21, 15:57:04,VALID,919.068,VALID,0,INVALID,132.678,VALID,239.486,VALID,20.9105,VALID,156,VALID,1.11914,
2017-02-21, 15:58:04,VALID,919.083,VALID,0,INVALID,132.99,VALID,244.966,VALID,20.9885,VALID,145,VALID,1.46641,
2017-02-21, 15:59:04,VALID,919.048,VALID,0,INVALID,132.869,VALID,248.834,VALID,21.0275,VALID,156,VALID,1.71211,
2017-02-21, 16:00:04,VALID,919.063,VALID,0,INVALID,132.403,VALID,254.313,VALID,21.008,VALID,158,VALID,2.13828,
2017-02-21, 16:01:04,VALID,919.09,VALID,0,INVALID,132.655,VALID,266.884,VALID,21.086,VALID,165,VALID,1.47461,
2017-02-21, 16:02:04,VALID,919.1,VALID,0,INVALID,132.251,VALID,274.512,VALID,21.1055,VALID,146,VALID,1.27422,
2017-02-21, 16:03:04,VALID,919.098,VALID,0,INVALID,132.167,VALID,327.481,VALID,21.1836,VALID,160,VALID,1.51523,
2017-02-21, 16:04:04,VALID,919.108,VALID,0,INVALID,131.191,VALID,354.019,VALID,21.2226,VALID,153,VALID,1.90859,
2017-02-21, 16:05:04,VALID,919.13,VALID,0,INVALID,129.705,VALID,305.133,VALID,21.2827,VALID,153,VALID,2.32344,
2017-02-21, 16:06:04,VALID,919.123,VALID,0,INVALID,130.635,VALID,286.653,VALID,21.4177,VALID,152,VALID,1.93906,
2017-02-21, 16:07:04,VALID,919.158,VALID,0,INVALID,129.202,VALID,283.537,VALID,21.3786,VALID,152,VALID,2.1293,
2017-02-21, 16:08:04,VALID,919.199,VALID,0,INVALID,129.209,VALID,289.554,VALID,21.4193,VALID,155,VALID,2.36289,
2017-02-21, 16:09:04,VALID,919.181,VALID,0,INVALID,129.484,VALID,309.108,VALID,21.3981,VALID,158,VALID,1.46992,
2017-02-21, 16:10:04,VALID,919.208,VALID,0,INVALID,128.775,VALID,375.292,VALID,21.4372,VALID,156,VALID,2.01641,
2017-02-21, 16:11:04,VALID,919.227,VALID,0,INVALID,121.273,VALID,384.854,VALID,21.5152,VALID,158,VALID,2.00273,
2017-02-21, 16:12:04,VALID,919.201,VALID,0,INVALID,119.444,VALID,400.648,VALID,21.6323,VALID,160,VALID,1.97812,
2017-02-21, 16:13:04,VALID,919.245,VALID,0,INVALID,113.825,VALID,409.136,VALID,21.6518,VALID,160,VALID,2.08242,
2017-02-21, 16:14:04,VALID,919.274,VALID,0,INVALID,121.761,VALID,394.094,VALID,21.7298,VALID,162,VALID,1.51406,
2017-02-21, 16:15:04,VALID,919.302,VALID,0,INVALID,129.789,VALID,426.112,VALID,21.9054,VALID,171,VALID,0.835547,
2017-02-21, 16:16:04,VALID,919.321,VALID,0,INVALID,122.722,VALID,458.881,VALID,22.0598,VALID,153,VALID,1.53672,
2017-02-21, 16:17:04,VALID,919.351,VALID,0,INVALID,116.341,VALID,466.832,VALID,22.2957,VALID,180,VALID,0.19375,
2017-02-21, 16:18:04,VALID,919.371,VALID,0,VALID,98.0524,VALID,438.682,VALID,22.4696,VALID,137,VALID,1.43945,
2017-02-21, 16:19:04,VALID,919.385,VALID,0,VALID,92.3653,VALID,428.798,VALID,22.6257,VALID,165,VALID,0.230078,
2017-02-21, 16:20:04,VALID,919.437,VALID,0,VALID,96.7793,VALID,488.105,VALID,22.8014,VALID,153,VALID,0,
2017-02-21, 16:21:04,VALID,919.433,VALID,0,VALID,90.9473,VALID,542.578,VALID,22.9202,VALID,153,VALID,0.0632813,
2017-02-21, 16:22:04,VALID,919.435,VALID,0,VALID,88.1343,VALID,536.131,VALID,23.0959,VALID,143,VALID,1.18477,
2017-02-21, 16:23:04,VALID,919.424,VALID,0,VALID,85.3823,VALID,547.842,VALID,22.9983,VALID,154,VALID,2.18164,
2017-02-21, 16:24:04,VALID,919.435,VALID,0,VALID,87.4101,VALID,492.833,VALID,22.9397,VALID,149,VALID,1.53555,
2017-02-21, 16:25:04,VALID,919.426,VALID,0,VALID,87.6617,VALID,457.162,VALID,23.0763,VALID,166,VALID,0.892187,
2017-02-21, 16:26:04,VALID,919.467,VALID,0,VALID,85.5576,VALID,504.221,VALID,23.0746,VALID,155,VALID,1.43711,
2017-02-21, 16:27:04,VALID,919.47,VALID,0,VALID,87.0289,VALID,550.528,VALID,23.1739,VALID,130,VALID,1.49375,
2017-02-21, 16:28:04,VALID,919.485,VALID,0,VALID,84.1701,VALID,457.055,VALID,23.1935,VALID,129,VALID,1.83203,
2017-02-21, 16:29:04,VALID,919.5,VALID,0,VALID,84.5056,VALID,442.228,VALID,23.1331,VALID,121,VALID,1.43906,
2017-02-21, 16:30:04,VALID,919.501,VALID,0,VALID,86.6554,VALID,442.765,VALID,23.1917,VALID,123,VALID,1.21289,
2017-02-21, 16:31:04,VALID,919.505,VALID,0,VALID,87.0442,VALID,434.062,VALID,23.2893,VALID,167,VALID,1.66094,
2017-02-21, 16:32:04,VALID,919.509,VALID,0,VALID,85.9311,VALID,419.665,VALID,23.1917,VALID,154,VALID,1.44258,
2017-02-21, 16:33:04,VALID,919.531,VALID,0,VALID,93.5317,VALID,419.128,VALID,23.3283,VALID,168,VALID,0.755078,
2017-02-21, 16:34:04,VALID,919.505,VALID,0,VALID,85.0392,VALID,424.607,VALID,23.3887,VALID,165,VALID,1.86758,
2017-02-21, 16:35:04,VALID,919.517,VALID,0,VALID,86.8002,VALID,428.475,VALID,23.3674,VALID,158,VALID,1.60859,
2017-02-21, 16:36:04,VALID,919.51,VALID,0,VALID,87.1356,VALID,431.269,VALID,23.4259,VALID,145,VALID,1.95156,
2017-02-21, 16:37:04,VALID,919.516,VALID,0,VALID,85.4737,VALID,419.665,VALID,23.4064,VALID,153,VALID,1.70664,
2017-02-21, 16:38:04,VALID,919.535,VALID,0,VALID,86.0074,VALID,413.541,VALID,23.4064,VALID,159,VALID,1.54453,
2017-02-21, 16:39:04,VALID,919.51,VALID,0,VALID,83.9872,VALID,418.268,VALID,23.4437,VALID,157,VALID,0.553906,
2017-02-21, 16:40:04,VALID,919.544,VALID,0,VALID,84.4065,VALID,424.715,VALID,23.5412,VALID,150,VALID,0,
2017-02-21, 16:41:04,VALID,919.545,VALID,0,VALID,83.606,VALID,469.196,VALID,23.543,VALID,156,VALID,0,
2017-02-21, 16:42:04,VALID,919.56,VALID,0,VALID,82.5845,VALID,513.998,VALID,23.5608,VALID,173,VALID,0,
2017-02-21, 16:43:04,VALID,919.562,VALID,0,VALID,81.8984,VALID,552.14,VALID,23.6779,VALID,147,VALID,0,
2017-02-21, 16:44:04,VALID,919.558,VALID,0,VALID,81.7688,VALID,554.611,VALID,23.7755,VALID,174,VALID,0,
2017-02-21, 16:45:04,VALID,919.542,VALID,0,VALID,81.9593,VALID,546.553,VALID,23.9902,VALID,169,VALID,0,
2017-02-21, 16:46:04,VALID,919.571,VALID,0,VALID,83.141,VALID,411.822,VALID,24.283,VALID,138,VALID,0.746484,
2017-02-21, 16:47:04,VALID,919.565,VALID,0,VALID,81.1436,VALID,381.201,VALID,24.4392,VALID,161,VALID,0,
2017-02-21, 16:48:04,VALID,919.604,VALID,0,VALID,79.0777,VALID,374.755,VALID,24.5192,VALID,149,VALID,0,
2017-02-21, 16:49:04,VALID,919.579,VALID,0,VALID,77.5454,VALID,376.796,VALID,24.4783,VALID,142,VALID,0,
2017-02-21, 16:50:04,VALID,919.564,VALID,0,VALID,76.3942,VALID,383.35,VALID,24.4392,VALID,129,VALID,1.29453,
2017-02-21, 16:51:04,VALID,919.595,VALID,0,VALID,74.7857,VALID,382.383,VALID,24.3044,VALID,154,VALID,0.00195313,
2017-02-21, 16:52:04,VALID,919.536,VALID,0,VALID,75.2279,VALID,380.234,VALID,24.2263,VALID,154,VALID,0,
2017-02-21, 16:53:04,VALID,919.564,VALID,0,VALID,78.7041,VALID,377.011,VALID,24.2654,VALID,131,VALID,0,
2017-02-21, 16:54:04,VALID,919.555,VALID,0,VALID,79.0701,VALID,373.251,VALID,24.402,VALID,129,VALID,0,
2017-02-21, 16:55:04,VALID,919.549,VALID,0,VALID,76.8364,VALID,372.284,VALID,24.5387,VALID,137,VALID,0,
2017-02-21, 16:56:04,VALID,919.552,VALID,0,VALID,75.7386,VALID,376.904,VALID,24.6149,VALID,176,VALID,0,
2017-02-21, 16:57:04,VALID,919.577,VALID,0,VALID,73.627,VALID,384.962,VALID,24.7126,VALID,183,VALID,0,
2017-02-21, 16:58:04,VALID,919.593,VALID,0,VALID,74.092,VALID,394.309,VALID,24.7144,VALID,168,VALID,0,
2017-02-21, 16:59:04,VALID,919.591,VALID,0,VALID,75.0449,VALID,402.152,VALID,24.8511,VALID,168,VALID,0,
2017-02-21, 17:00:04,VALID,919.601,VALID,0,VALID,72.552,VALID,403.979,VALID,24.9859,VALID,168,VALID,0,
2017-02-21, 17:01:04,VALID,919.618,VALID,0,VALID,71.4314,VALID,403.656,VALID,25.105,VALID,168,VALID,0,
2017-02-21, 17:02:04,VALID,919.59,VALID,0,VALID,71.5229,VALID,399.466,VALID,25.3394,VALID,163,VALID,0,
2017-02-21, 17:03:04,VALID,919.594,VALID,0,VALID,71.2332,VALID,395.383,VALID,25.357,VALID,73,VALID,0,
2017-02-21, 17:04:04,VALID,919.633,VALID,0,VALID,72.857,VALID,397.855,VALID,25.1226,VALID,57,VALID,0,
2017-02-21, 17:05:04,VALID,919.604,VALID,0,VALID,73.0018,VALID,405.053,VALID,25.1812,VALID,57,VALID,0,
2017-02-21, 17:06:04,VALID,919.616,VALID,0,VALID,73.5126,VALID,414.83,VALID,25.2007,VALID,57,VALID,0,
2017-02-21, 17:07:04,VALID,919.602,VALID,0,VALID,76.7297,VALID,427.723,VALID,25.2398,VALID,40,VALID,0,
2017-02-21, 17:08:04,VALID,919.634,VALID,0,VALID,71.8812,VALID,441.691,VALID,25.2398,VALID,76,VALID,0,
2017-02-21, 17:09:04,VALID,919.651,VALID,0,VALID,71.6754,VALID,449.749,VALID,25.3179,VALID,76,VALID,0,
2017-02-21, 17:10:04,VALID,919.643,VALID,0,VALID,71.2179,VALID,453.294,VALID,25.4331,VALID,76,VALID,0,
2017-02-21, 17:11:04,VALID,919.64,VALID,0,VALID,68.8166,VALID,454.046,VALID,25.4741,VALID,107,VALID,0,
2017-02-21, 17:12:04,VALID,919.668,VALID,0,VALID,69.2969,VALID,434.492,VALID,25.3355,VALID,108,VALID,0,
2017-02-21, 17:13:04,VALID,919.659,VALID,0,VALID,69.7314,VALID,420.525,VALID,25.2398,VALID,83,VALID,0,
2017-02-21, 17:14:04,VALID,919.631,VALID,0,VALID,70.9435,VALID,408.384,VALID,25.2398,VALID,83,VALID,0,
2017-02-21, 17:15:04,VALID,919.64,VALID,0,VALID,71.4848,VALID,405.913,VALID,25.2769,VALID,170,VALID,0,
2017-02-21, 17:16:04,VALID,919.64,VALID,0,VALID,69.5179,VALID,398.822,VALID,25.3746,VALID,190,VALID,0,
2017-02-21, 17:17:04,VALID,919.633,VALID,0,VALID,70.1049,VALID,388.077,VALID,25.4917,VALID,186,VALID,0,
2017-02-21, 17:18:04,VALID,919.62,VALID,0,VALID,72.0718,VALID,377.333,VALID,25.5698,VALID,219,VALID,0,
2017-02-21, 17:19:04,VALID,919.625,VALID,0,VALID,71.4695,VALID,368.093,VALID,25.5308,VALID,221,VALID,0,
2017-02-21, 17:20:04,VALID,919.6,VALID,0,VALID,71.5458,VALID,360.25,VALID,25.5503,VALID,219,VALID,0,
2017-02-21, 17:21:04,VALID,919.592,VALID,0,VALID,74.2292,VALID,350.258,VALID,25.4917,VALID,235,VALID,0,
2017-02-21, 17:22:04,VALID,919.581,VALID,0,VALID,71.8659,VALID,341.878,VALID,25.4136,VALID,250,VALID,0,
2017-02-21, 17:23:04,VALID,919.554,VALID,0,VALID,70.6538,VALID,331.456,VALID,25.2965,VALID,251,VALID,0,
2017-02-21, 17:24:04,VALID,919.541,VALID,0,VALID,70.6538,VALID,320.497,VALID,25.2183,VALID,251,VALID,0,
2017-02-21, 17:25:04,VALID,919.558,VALID,0,VALID,68.3287,VALID,310.29,VALID,25.2164,VALID,255,VALID,0,
2017-02-21, 17:26:04,VALID,919.52,VALID,0,VALID,70.1812,VALID,301.372,VALID,25.3355,INVALID,360,VALID,0,
2017-02-21, 17:27:04,VALID,919.504,VALID,0,VALID,70.326,VALID,295.248,VALID,25.3941,VALID,307,VALID,0,
2017-02-21, 17:28:04,VALID,919.511,VALID,0,VALID,70.2803,VALID,291.166,VALID,25.3726,VALID,294,VALID,0,
2017-02-21, 17:29:04,VALID,919.507,VALID,0,VALID,69.5865,VALID,291.058,VALID,25.4331,VALID,294,VALID,0,
2017-02-21, 17:30:04,VALID,919.519,VALID,0,VALID,69.556,VALID,294.819,VALID,25.4331,VALID,293,VALID,0,
2017-02-21, 17:31:04,VALID,919.497,VALID,0,VALID,68.3211,VALID,302.877,VALID,25.4722,VALID,294,VALID,0,
2017-02-21, 17:32:04,VALID,919.474,VALID,0,VALID,67.9094,VALID,312.976,VALID,25.4312,VALID,294,VALID,0,
2017-02-21, 17:33:04,VALID,919.454,VALID,0,VALID,68.2372,VALID,328.448,VALID,25.4722,VALID,294,VALID,0,
2017-02-21, 17:34:04,VALID,919.441,VALID,0,VALID,69.0758,VALID,334.357,VALID,25.5308,VALID,294,VALID,0,
2017-02-21, 17:35:04,VALID,919.44,VALID,0,VALID,69.4874,VALID,342.415,VALID,25.648,VALID,294,VALID,0,
2017-02-21, 17:36:04,VALID,919.418,VALID,0,VALID,67.9704,VALID,352.3,VALID,25.7847,VALID,294,VALID,0,
2017-02-21, 17:37:04,VALID,919.419,VALID,0,VALID,67.6578,VALID,364.44,VALID,25.7066,VALID,294,VALID,0,
2017-02-21, 17:38:04,VALID,919.386,VALID,0,VALID,67.7874,VALID,374.218,VALID,25.5874,VALID,294,VALID,0,
2017-02-21, 17:39:04,VALID,919.372,VALID,0,VALID,69.2282,VALID,383.565,VALID,25.648,VALID,294,VALID,0,
2017-02-21, 17:40:04,VALID,919.337,VALID,0,VALID,69.152,VALID,377.656,VALID,25.7046,VALID,293,VALID,0,
2017-02-21, 17:41:04,VALID,919.328,VALID,0,VALID,72.9256,VALID,373.68,VALID,25.9038,VALID,354,VALID,0,
2017-02-21, 17:42:04,VALID,919.322,VALID,0,VALID,75.4337,VALID,375.399,VALID,25.9214,VALID,3,VALID,0,
2017-02-21, 17:43:04,VALID,919.329,VALID,0,VALID,76.196,VALID,377.226,VALID,25.978,VALID,3,VALID,0,
2017-02-21, 17:44:04,VALID,919.315,VALID,0,VALID,72.6816,VALID,377.226,VALID,26.019,VALID,355,VALID,0,
2017-02-21, 17:45:04,VALID,919.256,VALID,0,VALID,74.2444,VALID,370.35,VALID,25.9019,VALID,315,VALID,0,
2017-02-21, 17:46:04,VALID,919.252,VALID,0,VALID,74.9687,VALID,350.258,VALID,25.8237,VALID,318,VALID,0,
2017-02-21, 17:47:04,VALID,919.269,VALID,0,VALID,76.4781,VALID,335.539,VALID,25.8237,VALID,311,VALID,0,
2017-02-21, 17:48:04,VALID,919.268,VALID,0,VALID,71.2866,VALID,326.406,VALID,25.7066,VALID,277,VALID,0,
2017-02-21, 17:49:04,VALID,919.254,VALID,0,VALID,72.6283,VALID,345.316,VALID,25.4136,VALID,274,VALID,0,
2017-02-21, 17:50:04,VALID,919.222,VALID,0,VALID,74.374,VALID,320.927,VALID,25.2398,VALID,274,VALID,0,
2017-02-21, 17:51:04,VALID,919.252,VALID,0,VALID,73.9624,VALID,299.761,VALID,25.0817,VALID,257,VALID,0,
2017-02-21, 17:52:04,VALID,919.246,VALID,0,VALID,74.1682,VALID,279.132,VALID,25.0036,VALID,257,VALID,0,
2017-02-21, 17:53:04,VALID,919.216,VALID,0,VALID,74.6409,VALID,266.884,VALID,25.0231,VALID,257,VALID,0,
2017-02-21, 17:54:04,VALID,919.257,VALID,0,VALID,74.5646,VALID,257.322,VALID,25.0621,VALID,257,VALID,0,
2017-02-21, 17:55:04,VALID,919.229,VALID,0,VALID,76.2875,VALID,250.123,VALID,25.1988,VALID,257,VALID,0,
2017-02-21, 17:56:04,VALID,919.236,VALID,0,VALID,75.2736,VALID,244.966,VALID,25.2574,VALID,257,VALID,0,
2017-02-21, 17:57:04,VALID,919.223,VALID,0,VALID,74.435,VALID,242.71,VALID,25.355,VALID,257,VALID,0,
2017-02-21, 17:58:04,VALID,919.223,VALID,0,VALID,77.6521,VALID,244.106,VALID,25.4331,VALID,257,VALID,0,
2017-02-21, 17:59:04,VALID,919.194,VALID,0,VALID,74.0234,VALID,248.297,VALID,25.4898,VALID,257,VALID,0,
2017-02-21, 18:00:04,VALID,919.174,VALID,0,VALID,73.9548,VALID,252.594,VALID,25.648,VALID,257,VALID,0,
2017-02-21, 18:01:04,VALID,919.158,VALID,0,VALID,75.3346,VALID,256.247,VALID,25.8042,VALID,265,VALID,0,
2017-02-21, 18:02:04,VALID,919.133,VALID,0,VALID,74.1835,VALID,261.834,VALID,25.8823,VALID,353,VALID,0,
2017-02-21, 18:03:04,VALID,919.11,VALID,0,VALID,73.3601,VALID,268.281,VALID,25.7847,INVALID,360,VALID,0,
2017-02-21, 18:04:04,VALID,919.096,VALID,0,VALID,75.5252,VALID,275.694,VALID,25.7456,VALID,360,VALID,0,
2017-02-21, 18:05:04,VALID,919.083,VALID,0,VALID,73.7947,VALID,283.322,VALID,25.7651,VALID,8,VALID,0,
2017-02-21, 18:06:04,VALID,919.038,VALID,0,VALID,74.1987,VALID,291.273,VALID,25.5698,VALID,8,VALID,0,
2017-02-21, 18:07:04,VALID,919.028,VALID,0,VALID,77.2862,VALID,299.331,VALID,25.3941,VALID,5,VALID,0,
2017-02-21, 18:08:04,VALID,919.021,VALID,0,VALID,78.9633,VALID,306.315,VALID,25.3355,VALID,27,VALID,0,
2017-02-21, 18:09:04,VALID,918.981,VALID,0,VALID,78.6813,VALID,314.158,VALID,25.4136,VALID,23,VALID,0,
2017-02-21, 18:10:04,VALID,918.968,VALID,0,VALID,77.0041,VALID,323.935,VALID,25.5113,VALID,336,VALID,0,
2017-02-21, 18:11:04,VALID,918.972,VALID,0,VALID,78.0257,VALID,332.208,VALID,25.5913,VALID,338,VALID,0,
2017-02-21, 18:12:04,VALID,918.939,VALID,0,VALID,77.7512,VALID,339.944,VALID,25.5894,VALID,339,VALID,0,
2017-02-21, 18:13:04,VALID,918.914,VALID,0,VALID,77.492,VALID,349.184,VALID,25.6284,VALID,341,VALID,0,
2017-02-21, 18:14:04,VALID,918.901,VALID,0,VALID,78.0333,VALID,368.738,VALID,25.687,VALID,24,VALID,0,
2017-02-21, 18:15:04,VALID,918.883,VALID,0,VALID,78.3763,VALID,390.978,VALID,25.7456,VALID,71,VALID,0,
2017-02-21, 18:16:04,VALID,918.888,VALID,0,VALID,75.2736,VALID,415.153,VALID,25.6089,VALID,81,VALID,0,
2017-02-21, 18:17:04,VALID,918.852,VALID,0,VALID,75.3803,VALID,448.352,VALID,25.4722,VALID,50,VALID,0,
2017-02-21, 18:18:04,VALID,918.812,VALID,0,VALID,69.1825,VALID,606.398,VALID,25.3355,VALID,51,VALID,0,
2017-02-21, 18:19:04,VALID,918.827,VALID,0,VALID,71.8659,VALID,712.979,VALID,25.355,VALID,43,VALID,0,
2017-02-21, 18:20:04,VALID,918.779,VALID,0,VALID,72.331,VALID,795.279,VALID,25.4331,VALID,111,VALID,0,
2017-02-21, 18:21:04,VALID,918.76,VALID,0,VALID,74.1377,VALID,633.58,VALID,25.6284,VALID,99,VALID,0,
2017-02-21, 18:22:04,VALID,918.726,VALID,0,VALID,72.5978,VALID,763.907,VALID,25.7261,VALID,38,VALID,0.0410156,
2017-02-21, 18:23:04,VALID,918.734,VALID,0,VALID,71.035,VALID,493.262,VALID,25.8237,VALID,76,VALID,0.000390625,
2017-02-21, 18:24:04,VALID,918.717,VALID,0,VALID,70.4251,VALID,478.65,VALID,25.8608,VALID,75,VALID,0,
2017-02-21, 18:25:04,VALID,918.745,VALID,0,VALID,75.5633,VALID,462.212,VALID,25.7066,VALID,104,VALID,0,
2017-02-21, 18:26:04,VALID,918.67,VALID,0,VALID,77.4234,VALID,445.344,VALID,25.5894,VALID,64,VALID,0.403906,
2017-02-21, 18:27:04,VALID,918.658,VALID,0,VALID,74.3131,VALID,437.285,VALID,25.5698,VALID,39,VALID,0,
2017-02-21, 18:28:04,VALID,918.655,VALID,0,VALID,72.087,VALID,428.475,VALID,25.5113,VALID,39,VALID,0,
2017-02-21, 18:29:04,VALID,918.636,VALID,0,VALID,74.8619,VALID,430.946,VALID,25.4507,VALID,17,VALID,0,
2017-02-21, 18:30:04,VALID,918.598,VALID,0,VALID,75.6472,VALID,432.666,VALID,25.4136,VALID,5,VALID,0,
2017-02-21, 18:31:04,VALID,918.573,VALID,0,VALID,76.5162,VALID,440.186,VALID,25.4331,VALID,360,VALID,0,
2017-02-21, 18:32:04,VALID,918.567,VALID,0,VALID,76.318,VALID,449.534,VALID,25.4898,VALID,1,VALID,0,
2017-02-21, 18:33:04,VALID,918.557,VALID,0,VALID,76.844,VALID,464.576,VALID,25.607,VALID,76,VALID,0,
2017-02-21, 18:34:04,VALID,918.534,VALID,0,VALID,75.3041,VALID,476.394,VALID,25.5113,VALID,88,VALID,0.000390625,
2017-02-21, 18:35:04,VALID,918.536,VALID,0,VALID,71.3933,VALID,513.676,VALID,25.4136,VALID,71,VALID,0,
2017-02-21, 18:36:04,VALID,918.519,VALID,0,VALID,69.739,VALID,521.734,VALID,25.4117,VALID,38,VALID,0,
2017-02-21, 18:37:04,VALID,918.518,VALID,0,VALID,68.6031,VALID,511.85,VALID,25.607,VALID,39,VALID,0,
2017-02-21, 18:38:04,VALID,918.514,VALID,0,VALID,69.8305,VALID,469.196,VALID,25.8022,VALID,33,VALID,0,
2017-02-21, 18:39:04,VALID,918.544,VALID,0,VALID,73.3144,VALID,467.262,VALID,25.8999,VALID,112,VALID,0.466797,
2017-02-21, 18:40:04,VALID,918.535,VALID,0,VALID,66.56,VALID,474.03,VALID,25.8804,VALID,128,VALID,0,
2017-02-21, 18:41:04,VALID,918.508,VALID,0,VALID,67.2004,VALID,487.998,VALID,25.8804,VALID,131,VALID,0,
2017-02-21, 18:42:04,VALID,918.512,VALID,0,VALID,68.1076,VALID,517.544,VALID,25.9975,VALID,133,VALID,0,
2017-02-21, 18:43:04,VALID,918.48,VALID,0,VALID,67.5206,VALID,676.235,VALID,26.2124,VALID,133,VALID,0,
2017-02-21, 18:44:04,VALID,918.437,VALID,0,VALID,67.0556,VALID,677.094,VALID,26.4468,VALID,135,VALID,0,
2017-02-21, 18:45:04,VALID,918.462,VALID,0,VALID,69.0758,VALID,585.662,VALID,26.7027,VALID,75,VALID,0,
2017-02-21, 18:46:04,VALID,918.479,VALID,0,VALID,64.2502,VALID,556.545,VALID,26.8179,VALID,146,VALID,0,
2017-02-21, 18:47:04,VALID,918.457,VALID,0,VALID,63.1829,VALID,645.936,VALID,26.8179,VALID,143,VALID,0,
2017-02-21, 18:48:04,VALID,918.453,VALID,0,VALID,65.4013,VALID,650.664,VALID,26.9156,VALID,147,VALID,0,
2017-02-21, 18:49:04,VALID,918.44,VALID,0,VALID,62.573,VALID,593.505,VALID,26.857,VALID,159,VALID,0,
2017-02-21, 18:50:04,VALID,918.413,VALID,0,VALID,63.2134,VALID,556.653,VALID,26.7788,VALID,152,VALID,0,
2017-02-21, 18:51:04,VALID,918.408,VALID,0,VALID,65.3632,VALID,569.653,VALID,26.7788,VALID,170,VALID,0,
2017-02-21, 18:52:04,VALID,918.421,VALID,0,VALID,62.2376,VALID,583.191,VALID,26.9135,VALID,120,VALID,0,
2017-02-21, 18:53:04,VALID,918.398,VALID,0,VALID,63.282,VALID,673.656,VALID,26.8179,VALID,91,VALID,0,
2017-02-21, 18:54:04,VALID,918.392,VALID,0,VALID,63.4954,VALID,587.811,VALID,26.7984,VALID,91,VALID,0,
2017-02-21, 18:55:04,VALID,918.389,VALID,0,VALID,65.8434,VALID,571.265,VALID,26.9546,VALID,85,VALID,0,
2017-02-21, 18:56:04,VALID,918.388,VALID,0,VALID,63.8156,VALID,536.131,VALID,26.9156,VALID,87,VALID,0,
2017-02-21, 18:57:04,VALID,918.381,VALID,0,VALID,64.1587,VALID,530.652,VALID,26.6812,VALID,125,VALID,0,
2017-02-21, 18:58:04,VALID,918.394,VALID,0,VALID,65.1878,VALID,515.288,VALID,26.6421,VALID,104,VALID,0,
2017-02-21, 18:59:04,VALID,918.364,VALID,0,VALID,64.6999,VALID,490.791,VALID,26.5249,VALID,104,VALID,0,
2017-02-21, 19:00:04,VALID,918.379,VALID,0,VALID,68.2982,VALID,470.7,VALID,26.4838,VALID,64,VALID,0,
2017-02-21, 19:01:04,VALID,918.378,VALID,0,VALID,65.5538,VALID,464.253,VALID,26.5249,VALID,131,VALID,0,
2017-02-21, 19:02:04,VALID,918.33,VALID,0,VALID,64.4712,VALID,471.667,VALID,26.5424,VALID,132,VALID,0,